Regional Weather Roundup
Issued by NWS Newport/Morehead, NC

Current Version | Previous Version | Text Only | Print | Product List | Glossary Off
Versions: 1 2 3 4 5 6 7 8 9 10 11 12 13 14 15 16 17 18 19 20 21 22 23 24 25 26 27 28 29 30 31 32 33 34 35 36 37 38 39 40 41 42 43 44 45 46 47 48 49 50
264 ASUS42 KMHX 010113 RWRMHX WEATHER ROUNDUP FOR EASTERN NORTH CAROLINA NATIONAL WEATHER SERVICE NEWPORT/MOREHEAD CITY NC 900 PM EDT SUN APR 30 2017 NOTE: "FAIR" INDICATES FEW OR NO CLOUDS BELOW 12,000 FEET WITH NO SIGNIFICANT WEATHER AND/OR OBSTRUCTIONS TO VISIBILITY NCZ015>017-031-032-045>047-102-103-010200- NORTH COAST CITY SKY/WX TMP DP RH WIND PRES REMARKS EDENTON CLEAR 78 69 74 S12 30.12R ELIZABETH CITY PTCLDY 77 70 79 S9 30.12R KITTY HAWK CLEAR 75 68 77 S5 30.13R MANTEO CLEAR 75 70 86 SW15 30.14R $$ NCZ045>047-081-094-103-104-010200- CENTRAL COAST CITY SKY/WX TMP DP RH WIND PRES REMARKS FRISCO CLEAR 74 69 85 SW10 30.17F HAZE $$ NCZ095-097-098-100-101-010200- SOUTHERN COAST CITY SKY/WX TMP DP RH WIND PRES REMARKS BEAUFORT CLEAR 74 73 97 S14 30.18R CEDAR ISLAND NOT AVBL JACKSONVILLE CLEAR 73 71 93 S8 30.16R PINEY ISLAND CLEAR N/A N/A N/A S9 30.17S WILMINGTON CLEAR 74 69 85 S9 30.16S $$ NCZ011>013-027>030-043-044-078>080-089-090>093-098-010200- COASTAL PLAIN CITY SKY/WX TMP DP RH WIND PRES REMARKS AHOSKIE N/A 75 66 72 S3 30.10S CLINTON CLEAR 75 66 74 S10 30.14R ELIZABETHTOWN CLEAR 74 66 77 S6 30.14R GOLDSBORO CLEAR 76 63 64 S6 30.11R GREENVILLE CLEAR 77 63 61 S9 30.13S HAVELOCK CLEAR 74 68 81 S9 30.18R KENANSVILLE CLEAR 75 64 69 S3 30.14S KINSTON CLEAR 75 61 60 S8 30.14R NEW BERN CLEAR 73 70 90 S12 30.17R RICHLANDS CLEAR 73 68 84 S10 30.16R ROCKY MOUNT CLEAR 77 64 64 S8 30.11R WASHINGTON CLEAR 76 68 77 S6 30.14R WHITEVILLE CLEAR 74 68 82 S6 30.15R $$ AMZ130-135-150-152-154-156-158-170-250-252-270-ANZ085-086-088-633-658-670-010200- MARINE OBSERVATIONS STATION/POSITION TIME TEMP WIND PRES WAVE SWELL AIR SEA DIR/SP/G HT/PER HT/PER (UTC) (F) (DEG/KT/KT) (MB) (FT/S) (FT/S) CHESAPEAKE LIGHT NOT AVBL 64 E VA BEACH 2350 65 61 200/ 14/ 16 1020.7 3/ 5 2/ 7 DUCK 0048 77 59 190/ 12/ 20 1019.6 2 E DUCK 0100 61 N/A 2/14 OREGON INLET 0048 190/ 24/ 27 N/A 13E OREGON INLT 0048 64 N/A 3/ 5 2/11 HATTERAS CG 0048 74 76 200/ 8/ 13 1021.5 DIAMOND BUOY 0050 76 75 200/ 16/ 19 1022.1 3/ 5 2/ 7 CAPE LOOKOUT 0000 74 190/ 12/ 14 1021.6 BEAUFORT LAB 0048 74 74 190/ 15/ 18 1021.1 30 SE NEW RVR IN 0008 73 200/ 10/ 12 1022.3 30 SE NEW RVR IN 2343 74 N/A 4/ 6 27 SE WRIGHTSVLE 0008 75 75 170/ 12/ 16 1021.5 5 SE WRIGHTSVLE 0008 74 72 170/ 10/ 14 1021.3 225 S CAPE HAT 2350 74 76 130/ 10/ 12 1024.3 3/ 7 3/ 7 41 SE CHARLESTON 0050 77 76 170/ 16/ 19 1020.5 4/ 6 $$

USA.gov is the U.S. government's official web portal to all federal, state and local government web resources and services.